PTSAPTPN

Guest
Details From PTSA - Kosrae
To PTPN - POHNPEI INTL
Flight Number -
Tags generated
Created
Modified
Stats Distance 303 nm / 561 km
Max Altitude 20,000 ft / 6,096 m
Waypoints 4
Social Downloads 7
Likes 0
Share VATSIM

Download

Looking for another format? Having issues loading an existing format? Contact us
Advertisement - Login to hide

Notes

Basic altitude profile: - Ascent Rate: 2500ft/min - Ascent Speed: 250kts - Cruise Altitude: 35000ft - Cruise Speed: 420kts - Descent Rate: 1500ft/min - Descent Speed: 250kts

Route

PTSA UKS A222 PNI PTPN

ID Type Via Altitude Latitude Longitude Leg Dist Tot Dist Heading (true) Name
O PTSA APT - 0 ft / 0 m 5.35692˚ 162.95840˚ - 0 nm - Kosrae
UKS NDB - 0 ft / 0 m 5.35306˚ 162.95694˚ 0 nm 0 nm 201° / 201° KOSRAE NDB
PNI NDB A222 (AWY-HI) 20,000 ft / 6,096 m 6.97197˚ 158.18497˚ 301 nm 301 nm 289° / 289° POHNPEI NDB
O PTPN APT - 0 ft / 0 m 6.98523˚ 158.20910˚ 1 nm 302 nm 61° / 61° POHNPEI INTL

Altitude Profile

Advertisement - Login to hide

Weather


0- 5 10 15 20 25 30 35+ Temperature / ° C

Clouds and Precipitation
Forecast for 2018-05-28 00:00 UTC. Updated 3 hours ago

Ground ~20,000 ft ~40,000 ft Winds

PTSA

Details ICAO PTSA (KSA)
Name Kosrae
Region Federated States of Micronesia, Palau
Timezone Unknown (UTC+0.0)
Stats Elevation 11 ft / 3 m (AMSL)
Location 5.356922° 162.958403°
Runways 1
Magnetic Variation 7.145° E

METAR

PTSA 280150Z 12012KT 10SM SCT020 BKN130 OVC300 30/25 A2972

Decode

TAF

TAF PTSA 272336Z 2800/2824 09011KT P6SM VCSH SCT017 SCT040 BKN120

Decode

Departure Runways

ID Width Length Bearing (true) Bearing (mag) Surface Threshold Offset Overrun Length
05 151 ft / 46 m 5,749 ft / 1,752 m 55.56° 48.41° Asphalt 0 ft / 0 m 207 ft / 63 m
23 151 ft / 46 m 5,749 ft / 1,752 m 235.56° 228.41° Asphalt 0 ft / 0 m 207 ft / 63 m

PTPN

Details ICAO PTPN (PNI)
Name POHNPEI INTL
Region Federated States of Micronesia, Palau
Timezone Pacific/Pohnpei (UTC+11.0)
Stats Elevation 10 ft / 3 m (AMSL)
Location 6.985226° 158.209103°
Runways 1
Magnetic Variation 5.753° E

METAR

PTPN 280150Z 15004KT 15SM BKN017TCU BKN130 OVC300 29/26 A2975 RMK TCU S-NW

Decode

TAF

TAF PTPN 272336Z 2800/2824 11010KT P6SM SCT017 BKN130 TEMPO 2800/2802 -SHRA BKN017

Decode

Destination Runways

ID Width Length Bearing (true) Bearing (mag) Surface Threshold Offset Overrun Length
09 151 ft / 46 m 6,023 ft / 1,836 m 90.31° 84.56° Asphalt 0 ft / 0 m 69 ft / 21 m
27 151 ft / 46 m 6,023 ft / 1,836 m 270.32° 264.57° Asphalt 0 ft / 0 m 69 ft / 21 m

Popular Alternatives